Orbital Elements at Epoch 2459000.5 (2020-May-31.0) TDB
Reference: JPL 22 (heliocentric ecliptic J2000)
Element | Value | Uncertainty (1-sigma) | Units |
e | .1584900056593248 | 3.435e-08 | |
a | 2.713630922257976 | 1.0391e-08 | au |
q | 2.28354754203199 | 9.5849e-08 | au |
i | 8.913758111307828 | 3.956e-06 | deg |
node | 72.74522814184199 | 2.3914e-05 | deg |
peri | 37.00523910243058 | 2.709e-05 | deg |
M | 276.2170787822901 | 1.2373e-05 | deg |
tp | 2459380.494747776177 (2021-Jun-14.99474778) | 5.6586e-05 | TDB |
period | 1632.768435513892 4.47 | 9.3785e-06 2.568e-08 | d yr |
n | .2204844190821798 | 1.2664e-09 | deg/d |
Q | 3.143714302483962 | 1.2038e-08 | au |
|
| | Orbit Determination Parameters
Additional Information
|